Regional Weather Roundup
Issued by NWS

Home | Current Version | Previous Version | Text Only | Print | Product List | Glossary On
Versions: 1 2 3 4 5 6 7 8 9 10 11 12 13 14 15 16 17 18 19 20 21 22 23 24 25 26 27 28 29 30 31 32 33 34 35 36 37 38 39 40 41 42 43 44 45 46 47 48 49 50
000
ASUS43 KIND 020909
RWRIN

WEATHER ROUNDUP FOR INDIANA
NATIONAL WEATHER SERVICE INDIANAPOLIS IN
500 AM EDT THU APR 02 2015

NOTE: "FAIR" INDICATES FEW OR NO CLOUDS BELOW 12,000 FEET WITH NO
SIGNIFICANT WEATHER AND/OR OBSTRUCTIONS TO VISIBILITY.

* - STATION DOES NOT REPORT WEATHER SUCH AS PRECIPITATION OR FOG.

+ - STATION NOT QUALITY CONTROLLED BY THE NATIONAL WEATHER SERVICE.
    USE DATA WITH CAUTION...ESPECIALLY DEWPOINT AND RELATIVE
    HUMIDITY OBSERVATIONS.

INZ001>003-010>013-019-020-021000-
NORTHWEST INDIANA

CITY           SKY/WX    TMP DP  RH WIND       PRES   REMARKS
GARY /AIRPORT/ CLOUDY    57  28  33 S14       29.78F
KNOX *+        CLOUDY    52  10  19 S13       29.82F
LA PORTE +     MOCLDY    54  34  46 S8        29.82F
MICHIGAN CITY+ MOCLDY    54  27  35 S10       29.81F
MONTICELLO +   CLOUDY    55  33  44 S7        29.83F
RENSSELAER +   CLOUDY    54  34  47 SE13      29.82F
VALPARAISO     CLOUDY    52  33  48 S8        29.82F

$$

LMZ046-743>745-021000-
SOUTHERN LAKE MICHIGAN

STATION/POSITION TIME  TEMP WIND        PRES
                       AIR  DIR/SP/G
                 (UTC) (F)  (DEG/KT/KT) (MB)
BURNS HARBOR     0900   56  170/ 13/ 20 1009.5S
MICHIGAN CITY    0900   55  140/ 13/ 17   N/A

$$

INZ004-005-014>016-021>024-021000-
NORTH CENTRAL INDIANA

CITY           SKY/WX    TMP DP  RH WIND       PRES   REMARKS
GOSHEN         MOCLDY    52  31  44 S12       29.85F
LOGANSPORT +   CLOUDY    52  32  46 S8        29.86F
PERU/GRISSOM   CLOUDY    52  32  46 S12       29.85F
ROCHESTER +    MOCLDY    54  32  43 S7        29.86F
SOUTH BEND     MOCLDY    55  30  38 S9        29.85F
WARSAW +       MOCLDY    50  32  50 S6        29.87S

$$

INZ006>009-017-018-025>027-021000-
NORTHEAST INDIANA

CITY           SKY/WX    TMP DP  RH WIND       PRES   REMARKS
ANGOLA *+      PTCLDY    46  32  57 SE5       29.88F
AUBURN +       MOCLDY    45  32  61 CALM      29.90F
FORT WAYNE     MOCLDY    44  32  62 SE6       29.90F
HUNTINGTON +   MOCLDY    47  26  44 S3        29.88F

$$

INZ028-029-035-036-043>045-051>053-021000-
WEST CENTRAL INDIANA

CITY           SKY/WX    TMP DP  RH WIND       PRES   REMARKS
CRAWFORDSVL +  CLOUDY    50  26  39 SE9       29.85F
GREENCASTLE +  CLOUDY    54  27  35 S8        29.87F
LAFAYETTE      CLOUDY    54  30  40 S6        29.83F
TERRE HAUTE    CLOUDY    56  32  40 S6        29.85F

$$

INZ030>032-037>040-046>048-054>057-064-065-021000-
CENTRAL INDIANA

CITY           SKY/WX    TMP DP  RH WIND       PRES   REMARKS
CP ATTERBURY + CLOUDY    52  30  43 S5        29.91F
FISHERS *+     MOCLDY    52  34  50 S8        29.89F
FRANKFORT +    MOCLDY    54  32  43 SE10G21   29.87F
GREENWOOD *+   CLOUDY    52  27  37 SE8       29.90S
INDIANAPOLIS   CLOUDY    54  29  38 S7        29.87F
-EAGLE CREEK   CLOUDY    53  29  39 SE6       29.88F
KOKOMO *+      MOCLDY    52  34  50 S14       29.87S
MARION +       MOCLDY    50  29  44 S10       29.90R
MT COMFORT *+  MOCLDY    52  18  25 S9        29.90S
SHELBYVILLE    CLOUDY    52  32  46 S8        29.90S
ZIONSVILLE +   CLOUDY    55  28  35 S12       29.88F

$$

INZ033-034-041-042-049-050-058-059-021000-
EAST CENTRAL INDIANA

CITY           SKY/WX    TMP DP  RH WIND       PRES   REMARKS
MUNCIE         PTCLDY    55  24  30 S14G22    29.90S

$$

INZ060-061-067>069-081>083-085>088-021000-
SOUTHWEST INDIANA

CITY           SKY/WX    TMP DP  RH WIND       PRES   REMARKS
EVANSVILLE     CLOUDY    62  37  39 S7        29.88S
HUNTINGBURG *+ CLOUDY    59  32  36 S7        29.89S
WASHINGTON +   CLOUDY    57  30  35 S9        29.86F

$$

INZ062-063-066-070>080-084-089>092-021000-
SOUTH CENTRAL AND SOUTHEAST INDIANA

CITY           SKY/WX    TMP DP  RH WIND       PRES   REMARKS
BEDFORD +      CLOUDY    57  25  28 SE7       29.89F
BLOOMINGTON    CLOUDY    55  30  38 SE8       29.88F
MADISON *+     CLOUDY    54  21  28 SE3       29.94S
NORTH VERNON + CLOUDY    57  21  24 SE8       29.93S
SEYMOUR +      CLOUDY    55  32  41 SE8       29.91S

$$



USA.gov is the U.S. government's official web portal to all federal, state and local government web resources and services.